Regional Weather Roundup
Issued by NWS Charleston, SC

Home | Current Version | Previous Version | Text Only | Print | Product List | Glossary On
Versions: 1 2 3 4 5 6 7 8 9 10 11 12 13 14 15 16 17 18 19 20 21 22 23 24 25 26 27 28 29 30 31 32 33 34 35 36 37 38 39 40 41 42 43 44 45 46 47 48 49 50
000
ASUS42 KCHS 291313
RWRCHS

REGIONAL WEATHER ROUNDUP
NATIONAL WEATHER SERVICE CHARLESTON SC
900 AM EDT MON AUG 29 2016

NOTE: "FAIR" INDICATES FEW OR NO CLOUDS BELOW 12,000 FEET WITH NO
SIGNIFICANT WEATHER AND/OR OBSTRUCTIONS TO VISIBILITY.

NOT ALL STATIONS ARE QUALITY CONTROLLED. USE DATA WITH CAUTION...
ESPECIALLY DEWPOINT OBSERVATIONS.

SCZ027-030-031-034>040-042>050-291400-
...SOUTHEAST SOUTH CAROLINA...

CITY           SKY/WX    TMP DP  RH WIND       PRES   REMARKS
N CHARLESTON   PTSUNNY   77  74  90 NE6       30.08S
WATERFRONT PRK   N/A     77  76  97 N7        30.06R
MOUNT PLEASANT CLOUDY    75  75 100 N6        30.08S FOG
JOHNS ISLAND   CLOUDY    79  77  94 N6        30.08S FOG
PINOPOLIS        N/A     75  75 100 NE7       30.02R
MONCKS CORNER  CLOUDY    75  73  94 N5        30.09S
SUMMERVILLE    CLOUDY    77  77 100 N8        30.10S
BEAUFORT MCAS  PTSUNNY   77  75  93 N8        30.08R
BEAUFORT ARPT  CLOUDY    77  75  94 NE9       30.07S FOG
HILTON HEAD IS MOSUNNY   84  79  84 N9        30.07S HX  96
WALTERBORO     CLOUDY    77  77 100 N5        30.10S
ALLENDALE      CLOUDY    75  73  94 VRB3      30.10R

...SOUTHERN MIDLANDS AND PEE DEE...

CITY           SKY/WX    TMP DP  RH WIND       PRES   REMARKS
GEORGETOWN     PTSUNNY   77  73  88 N6        30.09F
KINGSTREE      CLOUDY    77  70  78 N3        30.11S
ORANGEBURG     CLOUDY    76  72  87 NE6       30.12R
BARNWELL       NOT AVBL
AIKEN          CLOUDY    73  70  88 NE7       30.16S
MANNING        CLOUDY    75  72  88 N5        30.11R
COLUMBIA       MOSUNNY   80  72  76 E7        30.11S
SUMTER         CLOUDY    77  72  83 NE6       30.09F
FLORENCE       CLOUDY    79  73  82 NE5       30.12R
MYRTLE BEACH   PTSUNNY   79  68  69 NE7       30.10
N MYRTLE BEACH MOSUNNY   80  75  84 NE7       30.08S

$$

GAZ063-065-086>088-099>101-113>116-118-119-134>141-150-291400-
...SOUTHEAST GEORGIA...

CITY           SKY/WX    TMP DP  RH WIND       PRES   REMARKS
SAVANNAH ARPT  MOSUNNY   78  74  87 NE7       30.07S
HUNTER AAF     CLOUDY    77  77 100 NE6       30.04S
FORT STEWART   CLOUDY    77  75  94 N6        30.04S
STATESBORO     MOSUNNY   79  76  89 NE3       30.09S
SYLVANIA       NOT AVBL
CLAXTON        FAIR      78  77  96 N6        30.08S FOG

...CSRA...CENTRAL AND FAR SOUTHEAST GEORGIA...

CITY           SKY/WX    TMP DP  RH WIND       PRES   REMARKS
THOMSON        CLOUDY    80  74  81 MISG      30.17S
AUGUSTA-BUSH   CLOUDY    79  71  76 NE6       30.11S
AUGUSTA-DANIEL PTSUNNY   80  71  74 NE8       30.13R
SWAINSBORO     FAIR      79  72  78 NE7       30.11R
VIDALIA        CLOUDY    77  77 100 NE8       30.09S
EASTMAN        CLOUDY    78  77  96 E8        30.12R
HAZLEHURST     CLOUDY    77  77 100 CALM      30.07S
ALMA           PTSUNNY   79  75  87 CALM      30.06S
WAYCROSS         N/A     80  79  98 NE7       30.05S
JESUP          CLOUDY    77  77 100 NE8       30.06S
BAXLEY         CLOUDY    77  77 100 E8        30.07S
BRUNSWICK      MOSUNNY   79  79 100 N5        30.05S
SAINT SIMONS   MOSUNNY   85  77  77 E9        30.03S HX  95

$$

SCZ027-028-034-036>038-045-046-048>050-GAZ119-141-291400-
...LAKE AND SUPPLEMENTAL COASTAL OBSERVATIONS...

STATION/POSITION TIME  TEMP    WIND        PRES    WAVE   SWELL
                       AIR SEA DIR/SP/G            HT/PER HT/PER/DIR
                 (UTC) (F)     (DEG/KT/KT) (MB)    (FT/S) (FT/S/D)
WINYAH BAY       NOT AVBL
LAKE MURRAY      1200   76      50/  1/  6 1019.6R
ACE BASIN NERRS  NOT AVBL
FORT PULASKI     1200   79 85   10/  7/ 10 1018.3R
SAPELO ISLAND    1200   81      50/  5     1017.0S

$$

ANZ835-935-AMZ111-154-330-350-352-354-370-450-454-472-291400-
...C-MAN AND BUOY OBSERVATIONS...

STATION/POSITION TIME  TEMP    WIND        PRES    WAVE   SWELL
                       AIR SEA DIR/SP/G            HT/PER HT/PER/DIR
                 (UTC) (F)     (DEG/KT/KT) (MB)    (FT/S) (FT/S/D)
BUOY 41004       1250   81 85   70/  4/  6 1017.4S   3/ 9   3/150/ 9
BUOY 41008       1250   83 85   60/ 10/ 14 1016.7S   3/15   3/ 90/15
FOLLY BEACH CMAN 1300   77     360/ 10/ 13 1018.5R
CAPERS NEARSHORE 1208   80 84   50/ 10/ 12 1017.7R
FRIPP NEARSHORE  1208   80 85   40/ 12/ 16 1017.3R


STATION/POSITION TIME  TEMP    WIND        PRES    WAVE   SWELL
                       AIR SEA DIR/SP/G            HT/PER HT/PER/DIR
                 (UTC) (F)     (DEG/KT/KT) (MB)    (FT/S) (FT/S/D)
5E ST. MARYS GA  1201      85                N/A     4/15   2/110/15
FRYING PAN BUOY  1200   82 85   10/ 10/ 14 1017.5R
BUOY 41025       1250   83 84   60/ 14/ 16 1017.9R   7/ 9   7/110/ 9
CAPE LOOKOUT NC  1300   81      10/  8/ 10 1018.0R
BUOY 41002       1250   82 84  350/ 14/ 19 1016.4R   5/13   5/110/13
BUOY 41010       NOT AVBL
ST AUGUSTINE FL  1300   82 84   50/ 10/ 11 1016.6R


$$




USA.gov is the U.S. government's official web portal to all federal, state and local government web resources and services.